Time,TemperatureF,DewpointF,PressureIn,WindDirection,WindDirectionDegrees,WindSpeedMPH,WindSpeedGustMPH,Humidity,HourlyPrecipIn,Conditions,Clouds,dailyrainin,SoftwareType,DateUTC
2013-09-14 00:09:00,58.1,57.5,29.79,South,180,0.0,-999.0,98,-99.99,,,0.00,Acu-Link.com,2013-09-14 04:09:00,
2013-09-14 00:24:00,58.1,57.5,29.79,West,270,0.0,-999.0,98,-99.99,,,0.00,Acu-Link.com,2013-09-14 04:24:00,
2013-09-14 00:39:00,57.6,57.0,29.80,WNW,292,0.0,-999.0,98,-99.99,,,0.00,Acu-Link.com,2013-09-14 04:39:00,
2013-09-14 00:54:00,57.6,57.0,29.80,WNW,292,0.0,-999.0,98,-99.99,,,0.00,Acu-Link.com,2013-09-14 04:54:00,
2013-09-14 01:09:00,57.6,57.0,29.80,WNW,292,0.0,-999.0,98,-99.99,,,0.00,Acu-Link.com,2013-09-14 05:09:00,
2013-09-14 01:25:00,56.7,56.1,29.80,WSW,247,0.0,-999.0,98,-99.99,,,0.00,Acu-Link.com,2013-09-14 05:25:00,
2013-09-14 01:40:00,56.5,55.9,29.81,ESE,112,0.0,-999.0,98,-99.99,,,0.00,Acu-Link.com,2013-09-14 05:40:00,
2013-09-14 01:55:00,56.3,55.7,29.81,West,270,0.0,-999.0,98,-99.99,,,0.00,Acu-Link.com,2013-09-14 05:55:00,
2013-09-14 02:10:00,55.9,55.4,29.81,West,270,0.0,-999.0,98,-99.99,,,0.00,Acu-Link.com,2013-09-14 06:10:00,
2013-09-14 02:25:00,55.8,55.2,29.81,West,270,0.0,-999.0,98,-99.99,,,0.00,Acu-Link.com,2013-09-14 06:25:00,
2013-09-14 02:41:00,55.6,55.0,29.81,SSE,157,0.0,-999.0,98,-99.99,,,0.00,Acu-Link.com,2013-09-14 06:41:00,
2013-09-14 02:56:00,55.2,54.7,29.82,SSW,202,0.0,-999.0,98,-99.99,,,0.00,Acu-Link.com,2013-09-14 06:56:00,
2013-09-14 03:11:00,54.7,54.1,29.82,South,180,0.0,-999.0,98,-99.99,,,0.00,Acu-Link.com,2013-09-14 07:11:00,
2013-09-14 03:26:00,54.3,53.8,29.82,SW,225,0.0,-999.0,98,-99.99,,,0.00,Acu-Link.com,2013-09-14 07:26:00,
2013-09-14 03:42:00,54.3,53.8,29.83,SSW,202,0.0,-999.0,98,-99.99,,,0.00,Acu-Link.com,2013-09-14 07:42:00,
2013-09-14 03:57:00,54.1,53.6,29.82,SW,225,0.0,-999.0,98,-99.99,,,0.00,Acu-Link.com,2013-09-14 07:57:00,
2013-09-14 04:13:00,54.1,53.6,29.83,SSW,202,0.0,-999.0,98,-99.99,,,0.00,Acu-Link.com,2013-09-14 08:13:00,
2013-09-14 04:28:00,53.8,53.2,29.83,SSW,202,0.0,-999.0,98,-99.99,,,0.00,Acu-Link.com,2013-09-14 08:28:00,
2013-09-14 04:43:00,53.2,52.7,29.83,South,180,0.0,-999.0,98,-99.99,,,0.00,Acu-Link.com,2013-09-14 08:43:00,
2013-09-14 04:58:00,53.2,52.7,29.83,SSW,202,0.0,-999.0,98,-99.99,,,0.00,Acu-Link.com,2013-09-14 08:58:00,
2013-09-14 05:13:00,53.2,52.7,29.84,ESE,112,0.0,-999.0,98,-99.99,,,0.00,Acu-Link.com,2013-09-14 09:13:00,
2013-09-14 05:28:00,53.2,52.7,29.84,East,90,0.0,-999.0,98,-99.99,,,0.00,Acu-Link.com,2013-09-14 09:28:00,
2013-09-14 05:43:00,53.1,52.5,29.85,SSE,157,0.0,-999.0,98,-99.99,,,0.00,Acu-Link.com,2013-09-14 09:43:00,
2013-09-14 05:59:00,52.0,51.4,29.86,West,270,0.0,-999.0,98,-99.99,,,0.00,Acu-Link.com,2013-09-14 09:59:00,
2013-09-14 06:14:00,52.0,51.4,29.86,SSE,157,0.0,-999.0,98,-99.99,,,0.00,Acu-Link.com,2013-09-14 10:14:00,
2013-09-14 06:29:00,51.4,50.9,29.87,SSE,157,0.0,-999.0,98,-99.99,,,0.00,Acu-Link.com,2013-09-14 10:29:00,
2013-09-14 06:44:00,51.1,50.5,29.88,West,270,0.0,-999.0,98,-99.99,,,0.00,Acu-Link.com,2013-09-14 10:44:00,
2013-09-14 06:59:00,50.7,50.2,29.88,West,270,0.0,-999.0,98,-99.99,,,0.00,Acu-Link.com,2013-09-14 10:59:00,
2013-09-14 07:15:00,51.1,50.5,29.89,WSW,247,0.0,-999.0,98,-99.99,,,0.00,Acu-Link.com,2013-09-14 11:15:00,
2013-09-14 07:30:00,52.0,51.4,29.89,SE,135,0.0,-999.0,98,-99.99,,,0.00,Acu-Link.com,2013-09-14 11:30:00,
2013-09-14 07:45:00,53.4,52.9,29.89,SSW,202,0.0,-999.0,98,-99.99,,,0.00,Acu-Link.com,2013-09-14 11:45:00,
2013-09-14 08:00:00,54.1,53.6,29.89,WNW,292,3.1,-999.0,98,-99.99,,,0.00,Acu-Link.com,2013-09-14 12:00:00,
2013-09-14 08:16:00,54.7,54.1,29.89,WNW,292,0.0,-999.0,98,-99.99,,,0.00,Acu-Link.com,2013-09-14 12:16:00,
2013-09-14 08:31:00,55.2,54.7,29.90,SE,135,0.0,-999.0,98,-99.99,,,0.00,Acu-Link.com,2013-09-14 12:31:00,
2013-09-14 08:46:00,55.8,55.2,29.90,West,270,1.1,-999.0,98,-99.99,,,0.00,Acu-Link.com,2013-09-14 12:46:00,
2013-09-14 09:01:00,56.5,55.9,29.90,SSW,202,1.6,-999.0,98,-99.99,,,0.00,Acu-Link.com,2013-09-14 13:01:00,
2013-09-14 09:16:00,57.0,56.5,29.91,NW,315,3.8,-999.0,98,-99.99,,,0.00,Acu-Link.com,2013-09-14 13:16:00,
2013-09-14 09:32:00,57.6,57.0,29.91,WNW,292,3.1,-999.0,98,-99.99,,,0.00,Acu-Link.com,2013-09-14 13:32:00,
2013-09-14 09:47:00,57.9,57.4,29.92,SW,225,0.0,-999.0,98,-99.99,,,0.00,Acu-Link.com,2013-09-14 13:47:00,
2013-09-14 10:02:00,58.6,58.1,29.91,West,270,0.0,-999.0,98,-99.99,,,0.00,Acu-Link.com,2013-09-14 14:02:00,
2013-09-14 10:17:00,59.5,59.0,29.92,WNW,292,3.1,-999.0,98,-99.99,,,0.00,Acu-Link.com,2013-09-14 14:17:00,
2013-09-14 10:32:00,60.4,59.9,29.92,South,180,0.0,-999.0,98,-99.99,,,0.00,Acu-Link.com,2013-09-14 14:32:00,
2013-09-14 10:47:00,61.2,60.6,29.92,West,270,0.0,-999.0,98,-99.99,,,0.00,Acu-Link.com,2013-09-14 14:47:00,
2013-09-14 11:03:00,61.5,60.9,29.92,South,180,0.0,-999.0,98,-99.99,,,0.00,Acu-Link.com,2013-09-14 15:03:00,
2013-09-14 11:18:00,62.6,62.0,29.92,SSW,202,0.0,-999.0,98,-99.99,,,0.00,Acu-Link.com,2013-09-14 15:18:00,
2013-09-14 11:33:00,62.2,61.7,29.92,WNW,292,1.6,-999.0,98,-99.99,,,0.00,Acu-Link.com,2013-09-14 15:33:00,
2013-09-14 11:48:00,62.8,62.2,29.92,NNE,22,1.1,-999.0,98,-99.99,,,0.00,Acu-Link.com,2013-09-14 15:48:00,
2013-09-14 12:04:00,63.1,62.6,29.92,ESE,112,4.7,-999.0,98,-99.99,,,0.00,Acu-Link.com,2013-09-14 16:04:00,
2013-09-14 12:19:00,63.7,63.1,29.93,WSW,247,0.0,-999.0,98,-99.99,,,0.00,Acu-Link.com,2013-09-14 16:19:00,
2013-09-14 12:34:00,62.8,62.2,29.93,NE,45,0.0,-999.0,98,-99.99,,,0.00,Acu-Link.com,2013-09-14 16:34:00,
2013-09-14 12:49:00,63.3,62.7,29.93,SW,225,1.6,-999.0,98,-99.99,,,0.00,Acu-Link.com,2013-09-14 16:49:00,
2013-09-14 13:04:00,63.3,62.7,29.93,WSW,247,0.0,-999.0,98,-99.99,,,0.00,Acu-Link.com,2013-09-14 17:04:00,
2013-09-14 13:20:00,63.3,62.7,29.93,WSW,247,2.7,-999.0,98,-99.99,,,0.00,Acu-Link.com,2013-09-14 17:20:00,
2013-09-14 13:35:00,65.3,64.7,29.93,South,180,0.0,-999.0,98,-99.99,,,0.00,Acu-Link.com,2013-09-14 17:35:00,
2013-09-14 13:50:00,64.0,63.5,29.93,NW,315,2.2,-999.0,98,-99.99,,,0.00,Acu-Link.com,2013-09-14 17:50:00,
2013-09-14 14:05:00,64.4,63.8,29.93,NE,45,1.1,-999.0,98,-99.99,,,0.00,Acu-Link.com,2013-09-14 18:05:00,
2013-09-14 14:20:00,64.4,63.8,29.92,West,270,3.8,-999.0,98,-99.99,,,0.00,Acu-Link.com,2013-09-14 18:20:00,
2013-09-14 14:36:00,64.9,64.4,29.92,WSW,247,0.0,-999.0,98,-99.99,,,0.00,Acu-Link.com,2013-09-14 18:36:00,
2013-09-14 14:51:00,64.8,64.2,29.93,SSW,202,2.2,-999.0,98,-99.99,,,0.00,Acu-Link.com,2013-09-14 18:51:00,
2013-09-14 15:06:00,64.8,64.2,29.93,ENE,67,2.2,-999.0,98,-99.99,,,0.00,Acu-Link.com,2013-09-14 19:06:00,
2013-09-14 15:21:00,65.5,64.9,29.93,SW,225,0.0,-999.0,98,-99.99,,,0.00,Acu-Link.com,2013-09-14 19:21:00,
2013-09-14 15:36:00,65.1,64.5,29.93,WNW,292,0.0,-999.0,98,-99.99,,,0.00,Acu-Link.com,2013-09-14 19:36:00,
2013-09-14 15:52:00,65.5,64.9,29.93,WNW,292,5.1,-999.0,98,-99.99,,,0.00,Acu-Link.com,2013-09-14 19:52:00,
2013-09-14 16:07:00,65.5,64.9,29.93,WNW,292,2.7,-999.0,98,-99.99,,,0.00,Acu-Link.com,2013-09-14 20:07:00,
2013-09-14 16:22:00,64.9,64.4,29.95,ENE,67,1.6,-999.0,98,-99.99,,,0.00,Acu-Link.com,2013-09-14 20:22:00,
2013-09-14 16:37:00,64.8,64.2,29.95,SW,225,0.0,-999.0,98,-99.99,,,0.00,Acu-Link.com,2013-09-14 20:37:00,
2013-09-14 16:53:00,64.2,63.6,29.95,WNW,292,4.3,-999.0,98,-99.99,,,0.00,Acu-Link.com,2013-09-14 20:53:00,
2013-09-14 17:08:00,63.9,63.3,29.96,WNW,292,6.7,-999.0,98,-99.99,,,0.00,Acu-Link.com,2013-09-14 21:08:00,
2013-09-14 17:23:00,63.7,63.1,29.96,West,270,3.1,-999.0,98,-99.99,,,0.00,Acu-Link.com,2013-09-14 21:23:00,
2013-09-14 17:38:00,63.5,62.9,29.96,NNW,337,3.8,-999.0,98,-99.99,,,0.00,Acu-Link.com,2013-09-14 21:38:00,
2013-09-14 17:53:00,62.8,62.2,29.97,ESE,112,0.0,-999.0,98,-99.99,,,0.00,Acu-Link.com,2013-09-14 21:53:00,
2013-09-14 18:09:00,62.2,61.7,29.98,NW,315,3.8,-999.0,98,-99.99,,,0.00,Acu-Link.com,2013-09-14 22:09:00,
2013-09-14 18:24:00,61.9,61.3,29.98,WNW,292,0.0,-999.0,98,-99.99,,,0.00,Acu-Link.com,2013-09-14 22:24:00,
2013-09-14 18:39:00,61.3,60.8,29.98,West,270,0.0,-999.0,98,-99.99,,,0.00,Acu-Link.com,2013-09-14 22:39:00,
2013-09-14 18:54:00,60.8,60.2,29.99,West,270,0.0,-999.0,98,-99.99,,,0.00,Acu-Link.com,2013-09-14 22:54:00,
2013-09-14 19:09:00,59.9,59.3,29.99,West,270,0.0,-999.0,98,-99.99,,,0.00,Acu-Link.com,2013-09-14 23:09:00,
2013-09-14 19:24:00,59.4,58.8,29.99,ESE,112,0.0,-999.0,98,-99.99,,,0.00,Acu-Link.com,2013-09-14 23:24:00,
2013-09-14 19:40:00,58.5,57.9,30.00,WSW,247,0.0,-999.0,98,-99.99,,,0.00,Acu-Link.com,2013-09-14 23:40:00,
2013-09-14 19:55:00,57.7,57.2,30.01,SSW,202,0.0,-999.0,98,-99.99,,,0.00,Acu-Link.com,2013-09-14 23:55:00,
2013-09-14 20:10:00,56.8,56.3,30.02,SSE,157,0.0,-999.0,98,-99.99,,,0.00,Acu-Link.com,2013-09-15 00:10:00,
2013-09-14 20:25:00,56.3,55.7,30.02,SSW,202,0.0,-999.0,98,-99.99,,,0.00,Acu-Link.com,2013-09-15 00:25:00,
2013-09-14 20:41:00,55.6,55.0,30.03,SSW,202,0.0,-999.0,98,-99.99,,,0.00,Acu-Link.com,2013-09-15 00:41:00,
2013-09-14 20:56:00,55.2,54.7,30.03,SSW,202,0.0,-999.0,98,-99.99,,,0.00,Acu-Link.com,2013-09-15 00:56:00,
2013-09-14 21:11:00,55.0,54.5,30.03,WSW,247,0.0,-999.0,98,-99.99,,,0.00,Acu-Link.com,2013-09-15 01:11:00,
2013-09-14 21:26:00,55.0,54.5,30.04,WSW,247,0.0,-999.0,98,-99.99,,,0.00,Acu-Link.com,2013-09-15 01:26:00,
2013-09-14 21:41:00,55.0,54.5,30.05,WSW,247,0.0,-999.0,98,-99.99,,,0.00,Acu-Link.com,2013-09-15 01:41:00,
2013-09-14 21:57:00,55.0,54.5,30.05,WSW,247,0.0,-999.0,98,-99.99,,,0.00,Acu-Link.com,2013-09-15 01:57:00,
2013-09-14 22:12:00,53.4,52.9,30.05,WSW,247,0.0,-999.0,98,-99.99,,,0.00,Acu-Link.com,2013-09-15 02:12:00,
2013-09-14 22:27:00,52.9,52.3,30.05,WSW,247,0.0,-999.0,98,-99.99,,,0.00,Acu-Link.com,2013-09-15 02:27:00,
2013-09-14 22:42:00,52.3,51.8,30.05,SSE,157,0.0,-999.0,98,-99.99,,,0.00,Acu-Link.com,2013-09-15 02:42:00,
2013-09-14 22:57:00,52.0,51.4,30.06,SW,225,0.0,-999.0,98,-99.99,,,0.00,Acu-Link.com,2013-09-15 02:57:00,
2013-09-14 23:13:00,51.8,51.3,30.06,SW,225,0.0,-999.0,98,-99.99,,,0.00,Acu-Link.com,2013-09-15 03:13:00,
2013-09-14 23:28:00,51.1,50.5,30.06,SSW,202,0.0,-999.0,98,-99.99,,,0.00,Acu-Link.com,2013-09-15 03:28:00,
2013-09-14 23:43:00,50.7,50.2,30.07,South,180,0.0,-999.0,98,-99.99,,,0.00,Acu-Link.com,2013-09-15 03:43:00,
2013-09-14 23:58:00,50.5,50.0,30.07,SW,225,0.0,-999.0,98,-99.99,,,0.00,Acu-Link.com,2013-09-15 03:58:00,